Terminal Aerodrome Forecast
Issued by NWS

Home | Current Version | Previous Version | Text Only | Print | Product List | Glossary On
Versions: 1 2 3 4 5 6 7 8 9 10 11 12 13 14 15 16 17
000
FTUS45 KRIW 291900 AAA
TAFRKS
TAF AMD
KRKS 291942Z 2920/3018 08007KT P6SM OVC008
     FM292100 08007KT P6SM FEW030 SCT200
     FM300900 18005KT P6SM VCSH BKN070
     FM301200 22005KT P6SM VCSH OVC050=

USA.gov is the U.S. government's official web portal to all federal, state and local government web resources and services.